When you browse on this site, cookies collect data to enhance your experience and personalize the content and advertising you see.
Visit our Privacy Policy to learn more. By continuing to use the site, you agree to this use of cookies and data.

Hourly Weather Klagenfurt

Today, 5 July, Sunday

Time Temperature Precipitation Wind Pressure Humidity
00:00 +13°C° 0 mm 1 mps 692 mmHg 86%
01:00 +12°C° 0 mm 0 mps 692 mmHg 89%
02:00 +12°C° 0 mm 0 mps 691 mmHg 89%
03:00 +12°C° 0 mm 1 mps 691 mmHg 90%
04:00 +12°C° 0 mm 1 mps 691 mmHg 90%
05:00 +14°C° 0 mm 1 mps 692 mmHg 84%
06:00 +15°C° 0 mm 0 mps 692 mmHg 78%
07:00 +17°C° 0 mm 0 mps 693 mmHg 70%
08:00 +21°C° 0 mm 1 mps 693 mmHg 64%
09:00 +23°C° 0 mm 1 mps 693 mmHg 57%
10:00 +25°C° 0 mm 1 mps 694 mmHg 50%
11:00 +26°C° 0 mm 1 mps 694 mmHg 47%
12:00 +27°C° 0 mm 1 mps 694 mmHg 44%
13:00 +28°C° 0 mm 1 mps 693 mmHg 41%
14:00 +27°C° 0 mm 1 mps 693 mmHg 42%
15:00 +27°C° 0 mm 1 mps 693 mmHg 43%
16:00 +27°C° 0 mm 1 mps 692 mmHg 44%
17:00 +26°C° 0 mm 1 mps 692 mmHg 54%
18:00 +24°C° 0 mm 1 mps 691 mmHg 65%
19:00 +22°C° 0 mm 1 mps 691 mmHg 75%
20:00 +21°C° 0 mm 1 mps 691 mmHg 77%
21:00 +19°C° 0 mm 1 mps 691 mmHg 79%
22:00 +18°C° 0 mm 1 mps 691 mmHg 81%
23:00 +16°C° 0 mm 1 mps 690 mmHg 81%

Tomorrow, 6 July, Monday

Time Temperature Precipitation Wind Pressure Humidity
00:00 +16°C° 0 mm 1 mps 690 mmHg 82%
01:00 +16°C° 0 mm 1 mps 690 mmHg 83%
02:00 +15°C° 0 mm 1 mps 690 mmHg 84%
03:00 +15°C° 0 mm 1 mps 689 mmHg 85%
04:00 +14°C° 0 mm 0 mps 689 mmHg 86%
05:00 +16°C° 0 mm 0 mps 689 mmHg 81%
06:00 +17°C° 0 mm 0 mps 689 mmHg 76%
07:00 +19°C° 0 mm 0 mps 689 mmHg 72%
08:00 +23°C° 0 mm 1 mps 690 mmHg 66%
09:00 +25°C° 0 mm 1 mps 690 mmHg 60%
10:00 +27°C° 0 mm 1 mps 690 mmHg 55%
11:00 +27°C° 0.2 mm 1 mps 690 mmHg 55%
12:00 +27°C° 0.2 mm 1 mps 689 mmHg 56%
13:00 +27°C° 0.2 mm 2 mps 689 mmHg 56%
14:00 +26°C° 0.4 mm 2 mps 689 mmHg 62%
15:00 +26°C° 0.4 mm 1 mps 688 mmHg 67%
16:00 +25°C° 0.4 mm 1 mps 688 mmHg 72%
17:00 +24°C° 1 mm 1 mps 688 mmHg 79%
18:00 +22°C° 1 mm 1 mps 688 mmHg 85%
19:00 +21°C° 1 mm 1 mps 688 mmHg 92%
20:00 +19°C° 4.6 mm 1 mps 688 mmHg 94%
21:00 +17°C° 4.6 mm 2 mps 688 mmHg 96%
22:00 +15°C° 4.6 mm 2 mps 688 mmHg 97%
23:00 +12°C° 7.5 mm 3 mps 689 mmHg 97%

Day after tomorrow, 7 July, Tuesday

Time Temperature Precipitation Wind Pressure Humidity
00:00 +11°C° 7.5 mm 3 mps 689 mmHg 97%
01:00 +9°C° 7.5 mm 3 mps 689 mmHg 97%
02:00 +9°C° 4.6 mm 3 mps 689 mmHg 97%
03:00 +8°C° 4.6 mm 2 mps 690 mmHg 97%
04:00 +9°C° 4.6 mm 1 mps 690 mmHg 97%
05:00 +9°C° 0.2 mm 1 mps 691 mmHg 95%
06:00 +10°C° 0.2 mm 1 mps 691 mmHg 92%
07:00 +11°C° 0.2 mm 1 mps 692 mmHg 90%
08:00 +14°C° 0 mm 1 mps 692 mmHg 76%
09:00 +16°C° 0 mm 1 mps 692 mmHg 62%
10:00 +19°C° 0 mm 1 mps 693 mmHg 48%
11:00 +20°C° 0 mm 1 mps 692 mmHg 45%
12:00 +21°C° 0 mm 1 mps 692 mmHg 41%
13:00 +21°C° 0 mm 2 mps 692 mmHg 38%
14:00 +21°C° 0 mm 2 mps 692 mmHg 40%
15:00 +21°C° 0 mm 2 mps 692 mmHg 42%
16:00 +21°C° 0 mm 2 mps 692 mmHg 43%
17:00 +19°C° 0 mm 2 mps 692 mmHg 54%
18:00 +18°C° 0 mm 1 mps 692 mmHg 64%
19:00 +16°C° 0 mm 1 mps 692 mmHg 74%
20:00 +14°C° 0 mm 1 mps 692 mmHg 77%
21:00 +13°C° 0 mm 1 mps 692 mmHg 80%
22:00 +11°C° 0 mm 1 mps 692 mmHg 83%
23:00 +11°C° 0 mm 1 mps 692 mmHg 84%

8 July, Wednesday

Time Temperature Precipitation Wind Pressure Humidity
00:00 +10°C° 0 mm 1 mps 692 mmHg 86%
01:00 +10°C° 0 mm 1 mps 692 mmHg 87%
02:00 +9°C° 0 mm 0 mps 691 mmHg 88%
03:00 +8°C° 0 mm 0 mps 691 mmHg 90%
04:00 +8°C° 0 mm 0 mps 691 mmHg 91%
05:00 +10°C° 0 mm 0 mps 692 mmHg 84%
06:00 +12°C° 0 mm 0 mps 692 mmHg 78%
07:00 +14°C° 0 mm 0 mps 692 mmHg 72%
08:00 +18°C° 0 mm 1 mps 693 mmHg 66%
09:00 +20°C° 0 mm 1 mps 693 mmHg 59%
10:00 +22°C° 0 mm 1 mps 693 mmHg 53%
11:00 +23°C° 0 mm 1 mps 693 mmHg 50%
12:00 +24°C° 0 mm 1 mps 693 mmHg 47%
13:00 +25°C° 0 mm 1 mps 693 mmHg 44%
14:00 +25°C° 0 mm 1 mps 693 mmHg 45%
15:00 +25°C° 0 mm 1 mps 692 mmHg 45%
16:00 +25°C° 0 mm 1 mps 692 mmHg 46%
17:00 +23°C° 0 mm 1 mps 692 mmHg 55%
18:00 +21°C° 0 mm 1 mps 692 mmHg 65%
19:00 +19°C° 0 mm 1 mps 692 mmHg 74%
20:00 +18°C° 0 mm 1 mps 692 mmHg 75%
21:00 +16°C° 0 mm 1 mps 692 mmHg 76%
22:00 +14°C° 0 mm 1 mps 692 mmHg 76%
23:00 +14°C° 0 mm 1 mps 692 mmHg 76%

9 July, Thursday

Time Temperature Precipitation Wind Pressure Humidity
00:00 +13°C° 0 mm 1 mps 692 mmHg 76%
01:00 +13°C° 0 mm 1 mps 692 mmHg 76%
02:00 +12°C° 0 mm 0 mps 692 mmHg 76%
03:00 +11°C° 0 mm 0 mps 692 mmHg 77%
04:00 +11°C° 0 mm 0 mps 692 mmHg 77%
05:00 +13°C° 0 mm 0 mps 692 mmHg 74%
06:00 +15°C° 0 mm 0 mps 692 mmHg 70%
07:00 +17°C° 0 mm 0 mps 693 mmHg 67%
08:00 +19°C° 0 mm 0 mps 693 mmHg 59%
09:00 +23°C° 0 mm 1 mps 694 mmHg 52%
10:00 +25°C° 0 mm 1 mps 694 mmHg 45%
11:00 +26°C° 0 mm 1 mps 694 mmHg 42%
12:00 +26°C° 0 mm 1 mps 694 mmHg 39%
13:00 +27°C° 0 mm 1 mps 694 mmHg 37%
14:00 +27°C° 0 mm 1 mps 693 mmHg 37%
15:00 +27°C° 0 mm 1 mps 693 mmHg 38%
16:00 +27°C° 0 mm 1 mps 693 mmHg 39%
17:00 +25°C° 0 mm 1 mps 692 mmHg 50%
18:00 +23°C° 0 mm 1 mps 692 mmHg 60%
19:00 +21°C° 0 mm 1 mps 692 mmHg 71%
20:00 +20°C° 0 mm 1 mps 692 mmHg 69%
21:00 +19°C° 0 mm 1 mps 692 mmHg 68%
22:00 +16°C° 0 mm 1 mps 692 mmHg 66%
23:00 +16°C° 0 mm 1 mps 692 mmHg 68%

10 July, Friday

Time Temperature Precipitation Wind Pressure Humidity
00:00 +15°C° 0 mm 1 mps 691 mmHg 70%
01:00 +15°C° 0 mm 1 mps 691 mmHg 72%
02:00 +14°C° 0 mm 1 mps 691 mmHg 74%
03:00 +13°C° 0 mm 0 mps 691 mmHg 76%
04:00 +12°C° 0 mm 0 mps 690 mmHg 78%
05:00 +14°C° 0 mm 0 mps 691 mmHg 75%
06:00 +16°C° 0 mm 0 mps 691 mmHg 71%
07:00 +18°C° 0 mm 0 mps 691 mmHg 67%
08:00 +20°C° 0 mm 0 mps 692 mmHg 60%
09:00 +22°C° 0 mm 0 mps 692 mmHg 53%
10:00 +26°C° 0 mm 1 mps 692 mmHg 45%
11:00 +27°C° 0 mm 1 mps 692 mmHg 42%
12:00 +28°C° 0 mm 1 mps 692 mmHg 39%
13:00 +29°C° 0 mm 1 mps 692 mmHg 35%
14:00 +29°C° 0 mm 2 mps 691 mmHg 36%
15:00 +28°C° 0 mm 2 mps 691 mmHg 37%
16:00 +28°C° 0 mm 2 mps 691 mmHg 39%
17:00 +26°C° 0 mm 2 mps 691 mmHg 49%
18:00 +24°C° 0 mm 1 mps 690 mmHg 60%
19:00 +22°C° 0 mm 1 mps 690 mmHg 71%
20:00 +20°C° 0 mm 1 mps 690 mmHg 70%
21:00 +19°C° 0 mm 1 mps 690 mmHg 70%
22:00 +16°C° 0 mm 1 mps 690 mmHg 69%
23:00 +16°C° 0 mm 1 mps 690 mmHg 68%
Show more